STRAND-1 (39090 NORAD) Tracking and Keplerian Element Data

This shows tracking and keplerian element data for the satellite.

Feedback or suggestion? Click here.




ElementValue
Catalog39090
NameSTRAND-1
Epoch Orbit50988
Epoch Day325.07876582
Epoch Year2022
RAAN159.0828
Inclination98.3935
Eccentricity0.0009335
Argument of Perigee158.1865
Mean Anonmoly201.972
Mean Motion14.35371171
Decay Rate1.94E-06
L11 39090U 13009E 22325.07876582 .00000194 00000+0 82516-4 0 9990
L22 39090 98.3935 159.0828 0009335 158.1865 201.9720 14.35371171509881



Live tracking and technical data element details for STRAND-1 (NORAD 39090). STRAND-1 can be tracked NOW for your location showing map with azimuth and elevation plus other details from your city location.







IsCatalogInMostPopularTable: catalog: 39090, numindb: 525
Update: records affected: 1



GetName: 39090 STRAND-1

Hit Count: updated at: Mon, 28 Nov 2022 05:29:15 GMT